sat.trackr.live / text

‹ back to catalog

STARLINK-2061

NORAD 48312 · 2021-036AN

PAYLOAD ACTIVE UNKNOWN

§ Identity

Operator
Country
US
Launch date
2021-04-29
Launch site
AFETR
Launch vehicle
Mass (kg)
RCS (m²)

Purposes: comms

External: N2YO · Heavens-Above · Gunter

§ Orbital elements

Epoch: 2026-09-19T23:24:03.988224Z

Period
94.01 min
Inclination
53.1597°
Eccentricity
0.0001110
Mean motion
15.31696456 rev/d
Perigee alt
470.0 km
Apogee alt
471.5 km
Semi-major
6,848.9 km
B*
7.3655e-6
RAAN
264.2507°
Arg perigee
86.0013°
Mean anomaly
274.1115°
Rev number
29,799

§ Raw data

STARLINK-20611 48312U 21036AN  26262.97504616 -.00000136  00000+0  73655-5 0  99972 48312  53.1597 264.2507 0001110  86.0013 274.1115 15.31696456297990

JSON: /api/v1/satellites/48312 · /tle

For live sub-satellite position, see the globe view (requires WebGL).

§ Visibility from observer

Set your observer location to see the next 7 days of passes ≥ 10°. The values pass through the URL so the page stays shareable.

No JS? Fill the form by hand. The geolocation button needs JavaScript.